Location: Agadir-Ikarkaouin
(31.1503°N, 9.0246°W)
Time: 03:03:55
(UTC+00:00)

CSL-04 Rocket - Pass Details

Date: 18 September 2020
Orbit: 806 x 860 km, 98.9° (Epoch: 23 October)

Event Time Altitude Azimuth Distance (km) Brightness Sun altitude
Rises 20:02:36 0° 176° (S) 3,334 6.6 -18.9°
Reaches altitude 10° 20:04:58 10° 180° (S) 2,412 5.9 -19.4°
Maximum altitude 20:10:12 57° 259° (WSW) 972 4.3 -20.4°
Drops below altitude 10° 20:15:34 10° 338° (NNW) 2,460 6.6 -21.6°
Sets 20:18:00 0° 342° (NNW) 3,406 7.3 -22.1°
